This is the latest recevied weather packets stored in our database for station/object N0HEQ. If no packets are shown the sender has not sent any weather packets the latest 10 day(s).
| Time | Temp. | Humidity | Pressure | Rain* | Wind** | Luminosity | Snow |
|---|---|---|---|---|---|---|---|
| 1777424723 | 13.89° C | 39% | 1020.1 hPa | 0 mm | - | 28 W/m² | - |
| 1777424418 | 13.89° C | 38% | 1020 hPa | 0 mm | - | 57 W/m² | - |
| 1777424114 | 14.44° C | 38% | 1020.1 hPa | 0 mm | - | 59 W/m² | - |
| 1777423812 | 14.44° C | 38% | 1019.8 hPa | 0 mm | - | 81 W/m² | - |
| 1777423509 | 13.89° C | 39% | 1019.8 hPa | 0 mm | - | 82 W/m² | - |
| 1777423203 | 13.89° C | 40% | 1019.6 hPa | 0 mm | - | 52 W/m² | - |
| 1777422902 | 12.78° C | 42% | 1019.4 hPa | 0 mm | - | 45 W/m² | - |
| 1777422598 | 12.78° C | 41% | 1019.6 hPa | 0 mm | - | 39 W/m² | - |
| 1777422295 | 12.78° C | 43% | 1019.5 hPa | 0 mm | - | 46 W/m² | - |
| 1777421995 | 12.78° C | 43% | 1019.5 hPa | 0 mm | - | 40 W/m² | - |
| 1777421689 | 12.78° C | 43% | 1019.4 hPa | 0 mm | - | 37 W/m² | - |
| 1777421384 | 12.78° C | 42% | 1019.3 hPa | 0 mm | - | 49 W/m² | - |
| 1777421081 | 12.78° C | 42% | 1019.3 hPa | 0 mm | - | 55 W/m² | - |
| 1777420778 | 12.78° C | 42% | 1019 hPa | 0 mm | - | 76 W/m² | - |
| 1777420474 | 12.78° C | 42% | 1019.3 hPa | 0 mm | - | 65 W/m² | - |
| 1777420171 | 13.33° C | 41% | 1019.2 hPa | 0 mm | - | 84 W/m² | - |
| 1777419867 | 12.78° C | 41% | 1019 hPa | 0 mm | - | 80 W/m² | - |
| 1777419564 | 12.78° C | 40% | 1019 hPa | 0 mm | - | 71 W/m² | - |
| 1777419263 | 13.33° C | 40% | 1018.8 hPa | 0 mm | - | 91 W/m² | - |
| 1777418960 | 12.78° C | 40% | 1019 hPa | 0 mm | - | 182 W/m² | - |
| 1777418655 | 12.78° C | 41% | 1018.9 hPa | 0 mm | - | 120 W/m² | - |
| 1777418352 | 12.78° C | 41% | 1018.8 hPa | 0 mm | - | 101 W/m² | - |
| 1777418048 | 13.33° C | 41% | 1018.7 hPa | 0 mm | - | 96 W/m² | - |
| 1777417743 | 13.33° C | 41% | 1018.8 hPa | 0 mm | - | 77 W/m² | - |
| 1777417439 | 13.33° C | 41% | 1018.7 hPa | 0 mm | - | 89 W/m² | - |
* Rain latest hour (hover to see other rain measurements)
** Current wind speed in m/s (hover to see current wind gust speed)